Location: Newark
(13.8117°N, 3.6025°W)
Time: 00:28:58
(UTC+00:00)

Tiros 1 - Visible Passes

Search period start: 22 August 2019 00:00
Search period end: 01 September 2019 00:00
Orbit: 630 x 664 km, 48.4° (Epoch: 21 August)

Date Brightness Start Highest point End Pass type
(mag) Time Alt. Az. Time Alt. Az. Time Alt. Az.
25 Aug 8.9 19:48:55 10° S 19:50:20 17° S 19:50:20 17° S visible
26 Aug 7.7 20:14:05 10° SW 20:17:24 47° SW 20:17:24 47° SW visible
27 Aug 10.1 04:59:08 10° NNE 05:01:12 13° NE 05:03:15 10° ENE visible
27 Aug 8.3 18:59:06 10° S 19:02:48 23° SE 19:06:27 10° ENE visible
27 Aug 8.9 20:40:47 10° WSW 20:44:34 29° NW 20:44:34 29° NW visible
28 Aug 8.9 05:23:10 10° NNW 05:27:28 35° NE 05:31:48 10° ESE visible
28 Aug 7.0 19:24:06 10° SW 19:28:44 78° SE 19:33:20 10° NE visible
28 Aug 10.2 21:10:29 10° NW 21:11:07 10° NW 21:11:41 10° NW visible
29 Aug 10.2 04:09:43 10° NNE 04:11:09 11° NE 04:12:35 10° ENE visible
29 Aug 8.8 19:50:38 10° WSW 19:54:47 32° NW 19:58:56 10° NNE visible
30 Aug 8.9 04:33:18 10° NNW 04:37:27 31° NE 04:41:39 10° ESE visible
30 Aug 10.1 20:19:30 10° WNW 20:21:05 12° NW 20:22:40 10° NNW visible
31 Aug 7.0 04:58:50 10° NW 05:03:31 83° SW 05:08:16 10° SE visible
31 Aug 8.7 19:00:30 10° WSW 19:04:48 36° NW 19:09:03 10° NNE visible
